Accueil
METAR-TAF:

METAR-TAF

Aéroports :

Jendouba, Tunisie

latitude: 36-29N, longitude: 008-48E, altitude: 143 m

Observation

Le bulletin a été fait il y a 58 minutes, à 07:00 UTC
Vent 2 kt de direction variable
Température 12°C
Humidité 88%
Pression 1020 hPa
Visibilité 10 km ou plus
Quelques nuages à une hauteur de 2000 ft

METAR: DTTN 300700Z VRB02KT 9999 FEW020 12/10 Q1020

Heure: 08:58 (07:58 UTC)


TAF: absent

Observations et prévisions météorologiques de plus de 4000 aéroports (messages METAR et TAF).

Les stations disponibles sont représentées par des disques jaunes et rouges sur la carte.

Passer la souris dessus pour voir le nom de la station.

Cliquer dessus pour voir les observations et prévisions météorologiques.

Pour changer de carte: cliquez sur les boutons verts avec une croix noire pour zoomer, sur le bouton vert avec un tiret pour effectuer un zoom arrière, ou sur les flèches vertes pour les cartes adjacentes.


METAR-TAF: